Torna al catalogo

COSMOS 2251 DEB

AttivoLEO
NORAD 34023·DEBRIS·🇷🇺 Russia

Lanciato Jun 16, 1993 da Plesetsk Cosmodrome

Loading…

Prossimi Passaggi (prossime 24 ore)

TLE

AggiornatoSource: Space-Track

Epoca: Sep 13, 2026, 14:55 UTC

1 34023U 93036HJ  26256.62180824  .00000448  00000-0  14728-3 0  9996
2 34023  74.0227 102.8017 0018225 138.0744 279.4732 14.41029043921734

Traccia COSMOS 2251 DEB in tempo reale con AllMySat

Download on the App Store